Hourly Data Report for November 02, 2021

MOUNT FOREST (AUT)
ONTARIO
Current Station Operator: ECCC - MSC

43°59'00.000" N
80°45'00.000" W
414.50 m
6145504
71631
WLS

Download Data

Hourly Data (November 2021)
Hourly Data Report for November 2, 2021
TIME
LST
Temp Definition
°C
Dew Point Definition
°C
Rel Hum Definition
%
Precip. Amount Definition
mm

Wind Dir Definition
10's deg

Wind Spd Definition
km/h
Visibility Definition
km
Stn Press Definition
kPa
Hmdx Definition


Wind Chill Definition


Weather Definition


00:00 2.4 -1.6 75 0.0 33 4   96.93     LegendNANA
01:00 1.1 -1.1 86 0.0 2 4   96.91     LegendNANA
02:00 0.0 -1.3 91 0.0 17 3   96.90   -1 LegendNANA
03:00 1.1 -3.6 71 0.0 22 8   96.90     LegendNANA
04:00 0.0 -3.3 78 0.0 26 3   96.90   -1 LegendNANA
05:00 0.0 -1.0 93 0.2 27 7   96.94   -2 LegendNANA
06:00 0.8 0.0 94 0.3 27 9   96.93     LegendNANA
07:00 0.9 0.0 94 0.1 26 13   96.94     LegendNANA
08:00 1.2 0.1 92 0.0 26 12   96.97     LegendNANA
09:00 0.9 0.0 94 0.1 31 11   96.98     LegendNANA
10:00 2.6 0.5 86 0.0 27 12   97.00     LegendNANA
11:00 1.6 0.7 94 0.0 26 9   97.04     LegendNANA
12:00 1.0 0.1 94 1.0 31 12   97.05     LegendNANA
13:00 3.0 1.0 87 0.7 26 7   96.97     LegendNANA
14:00 3.1 0.9 85 0.9 24 9   96.97     LegendNANA
15:00 2.6 -1.2 76 0.0 26 20   97.01     LegendNANA
16:00 1.4 0.2 92 0.2 27 8   97.05     LegendNANA
17:00 1.1 -0.2 92 0.1 27 8   97.05     LegendNANA
18:00 1.2 -0.1 91 0.0 26 10   97.12     LegendNANA
19:00 0.5 -0.3 95 0.1 26 6   97.11     LegendNANA
20:00 0.4 -0.9 91 0.0 25 8   97.08     LegendNANA
21:00 0.5 -1.0 90 0.0 29 7   97.11     LegendNANA
22:00 0.3 -0.7 93 0.0 30 8   97.13     LegendNANA
23:00 0.0 -0.4 97 0.4 30 4   97.12   -1 LegendNANA

Notes on Data Quality.

Legend

  • E = Estimated
  • M = Missing
  • NA = Not Available*
  • [empty] = Indicates an unobserved value
Date modified: